SCP
1 1 1 0 0 1 1 1 1 1 1 1 1 1 1 1 1 2 2 2 1 1 1 2 2 1 1 1 1 1 1 1 1 1 1 1 1 1 1 1 0 0 0 0 0 0 0 0 0
1 1 1 0 0 0 1 1 1 1 1 1 1 1 1 1 1 2 2 2 1 1 1 2 2 2 1 1 1 1 1 1 1 1 1 1 1 1 1 1 0 0 0 0 0 0 0 0 0
1 0 0 0 0 0 1 1 1 1 1 1 1 1 1 1 1 2 2 1 1 1 1 2 2 2 2 2 1 1 1 1 1 1 1 1 1 1 1 0 0 0 0 0 0 0 0 0 0
0 0 0 0 0 0 0 1 1 1 1 1 1 1 2 2 2 2 2 1 1 1 1 1 2 2 2 2 2 1 1 1 1 1 1 1 1 1 0 0 0 0 0 0 0 0 0 0 0
0 0 0 0 0 0 0 1 1 1 1 1 1 2 2 2 3 2 2 2 1 1 1 1 2 2 2 2 2 1 1 1 1 1 1 1 1 1 1 0 0 0 0 0 0 0 0 0 0
0 0 0 0 0 0 0 1 1 1 1 1 1 2 3 3 4 3 2 2 1 1 2 2 2 2 2 2 2 1 1 1 1 1 1 1 1 1 1 1 1 1 1 1 0 0 0 0 0
0 0 0 0 0 0 0 0 1 1 1 1 1 2 3 4 4 3 3 2 2 2 3 2 2 2 2 1 1 1 1 1 1 1 1 1 1 1 1 1 1 1 1 1 1 0 0 0 0
0 0 0 0 0 0 0 1 1 1 1 1 1 2 3 3 3 3 3 3 3 3 3 3 2 2 1 1 1 1 1 1 1 1 1 1 1 1 1 1 1 1 1 1 1 1 0 0 0
0 0 0 0 0 0 0 1 1 1 1 1 2 2 3 3 3 3 4 4 3 3 2 2 2 1 1 1 1 1 1 1 1 1 1 1 1 1 1 1 1 0 1 1 1 1 1 1 0
0 0 0 0 0 0 1 1 1 1 2 2 2 3 3 3 3 3 3 4 3 3 2 2 2 2 1 1 1 1 1 1 1 1 1 1 1 1 1 1 1 1 0 1 1 1 1 1 1
0 0 0 0 0 0 1 1 1 1 2 2 2 3 3 3 3 3 3 3 3 2 2 3 3 2 2 2 2 2 1 1 1 1 1 1 1 1 1 1 1 1 1 1 1 1 1 1 1
0 0 0 0 0 0 1 1 1 1 2 2 3 3 3 3 4 3 3 3 3 2 2 3 3 3 3 3 3 2 2 1 1 1 1 1 1 1 1 1 1 1 1 1 1 1 1 1 1
0 0 0 0 0 0 1 1 1 2 2 3 3 3 3 4 5 4 3 3 3 3 3 3 3 3 3 3 3 2 2 2 1 1 1 1 1 1 1 1 1 1 1 1 1 1 1 1 1
0 0 0 0 0 0 1 1 1 2 2 2 2 2 3 4 5 4 3 2 3 3 3 3 3 3 3 3 2 2 2 2 1 1 1 1 1 1 1 1 1 1 1 1 1 1 1 1 1
0 0 0 0 0 0 1 1 1 2 2 2 2 2 3 4 5 4 2 2 2 2 2 2 2 2 2 2 2 2 2 2 1 1 1 1 1 1 1 1 1 1 1 1 1 1 1 1 1
0 0 0 0 0 0 0 1 1 2 2 2 2 3 3 4 4 3 2 2 1 2 2 2 2 2 2 2 2 2 2 1 1 1 1 1 1 1 1 1 1 1 1 1 1 1 1 1 1
0 0 0 0 0 0 0 1 1 1 1 2 2 3 3 3 3 3 3 2 2 2 3 3 2 2 2 2 2 2 1 1 1 1 1 1 1 1 1 1 1 1 1 1 1 1 2 2 2
0 0 0 0 0 0 0 1 1 1 1 2 2 3 3 3 3 3 3 2 2 3 3 2 2 2 2 2 2 1 1 1 1 1 1 1 1 1 1 1 1 1 1 1 1 1 1 2 2
0 0 0 0 0 0 0 1 1 1 1 2 2 2 2 3 3 3 3 2 3 3 3 2 1 1 1 1 1 1 1 1 1 0 1 1 1 1 1 1 1 1 1 1 1 1 1 2 2
0 0 0 0 0 0 0 0 1 1 1 1 2 2 2 2 2 2 2 3 3 2 2 1 1 1 1 1 1 1 0 0 0 0 0 0 0 1 1 1 0 0 1 1 1 1 1 1 1
0 0 0 0 0 0 0 0 1 1 1 1 1 1 1 2 2 2 2 3 2 2 1 1 0 0 0 0 0 0 0 0 0 0 0 0 0 0 1 0 0 0 0 0 0 1 1 1 1
0 0 0 0 0 0 0 0 1 1 1 1 1 1 1 1 2 2 2 2 2 1 1 0 0 0 0 0 0 0 0 0 0 0 0 0 0 0 0 0 0 0 0 0 1 1 1 1 1
0 0 0 0 0 0 0 0 0 1 1 1 1 1 1 1 1 1 1 1 1 0 0 0 0 0 0 0 0 0 0 0 0 0 0 0 0 0 0 0 0 0 0 0 1 1 1 1 1
0 0 0 0 0 0 0 0 0 0 1 1 1 1 1 1 1 1 1 1 0 0 0 0 0 0 0 0 0 0 0 0 0 0 0 0 0 0 0 0 0 0 0 0 1 1 1 1 1
0 0 0 0 0 0 0 0 0 0 0 1 1 1 1 1 1 1 1 0 0 0 0 0 0 0 0 0 0 0 0 0 0 0 0 0 0 0 0 0 0 0 0 0 0 1 1 1 1
0 0 0 0 0 0 0 0 0 0 0 0 1 1 1 1 1 1 1 1 0 0 0 0 0 0 0 0 0 0 0 0 0 0 0 0 0 0 0 0 0 0 0 0 0 0 0 1 1
0 0 0 0 0 0 0 0 0 0 0 0 1 1 1 1 1 1 1 1 1 0 0 0 0 0 0 0 0 0 0 0 0 0 0 0 0 0 0 0 0 0 0 0 0 0 0 0 0
0 0 0 0 0 0 0 0 0 0 0 1 1 1 2 2 1 1 1 1 1 0 0 0 0 0 0 0 0 0 0 0 0 0 0 0 0 0 0 0 0 0 0 0 0 0 0 0 0
0 0 0 0 0 0 0 0 0 0 1 1 1 1 2 2 1 1 1 1 1 1 1 1 1 1 1 0 0 0 0 0 0 0 0 0 0 0 0 0 0 0 0 0 0 0 0 0 0
0 0 0 0 0 0 0 0 0 0 1 1 1 1 1 1 1 1 1 1 1 1 1 1 1 1 1 0 0 0 0 0 0 0 0 0 0 0 0 0 0 0 0 0 0 0 0 0 0
Wind_Speed
9 7 5 5 7 5 2 3 2 2 3 3 2 1 1 3 4 5 6 10 12 14 15 15 13 13 13 13 13 13 13 13 13 12 12 11 10 10 9 9 8 8 9 9 9 9 9 10 10
6 5 6 7 7 2 3 2 2 3 4 4 3 2 2 4 6 6 7 10 13 14 14 14 14 13 13 13 13 13 13 12 12 12 11 11 10 9 8 8 8 8 8 8 8 9 9 9 9
5 6 7 6 3 3 3 3 3 4 4 4 3 1 3 4 4 5 8 13 13 13 13 14 14 13 13 13 13 12 12 12 11 11 10 10 9 8 8 7 7 7 8 8 8 8 8 8 8
5 6 7 7 1 3 3 2 2 5 4 3 3 4 4 4 2 5 11 14 14 13 14 15 14 13 13 12 12 12 12 11 11 10 9 9 8 8 7 7 6 6 7 7 7 7 8 7 7
6 6 7 4 1 3 2 2 2 3 3 3 3 4 5 4 4 9 12 13 12 12 13 15 13 13 12 12 11 11 11 11 10 9 8 8 7 7 7 6 6 6 6 6 7 6 7 7 6
6 6 6 2 2 2 2 1 1 1 2 3 2 4 6 5 7 9 11 10 11 11 12 14 13 12 11 11 11 10 10 9 9 8 7 7 6 6 6 6 5 5 5 5 6 6 6 6 5
6 5 3 2 0 2 2 1 1 0 2 2 0 4 6 7 6 9 9 9 10 10 11 12 13 12 11 10 10 9 9 8 8 7 6 6 6 5 5 5 5 5 5 5 4 5 6 5 5
5 5 4 2 1 2 3 1 2 2 3 3 0 2 6 7 7 9 9 8 8 8 9 10 10 9 10 10 10 9 8 8 7 7 6 5 6 6 5 6 5 4 5 5 4 4 5 5 4
6 6 2 1 2 2 2 1 3 1 3 3 2 4 7 11 10 10 10 9 8 8 6 7 9 8 7 8 9 9 9 7 7 7 6 6 6 6 6 4 5 4 4 5 5 4 4 5 6
6 3 2 4 4 3 1 1 1 3 3 3 5 7 9 10 10 10 10 10 9 8 7 5 6 6 6 5 6 5 5 6 4 4 5 4 2 2 2 7 4 4 4 5 5 4 6 8 7
4 3 2 2 3 3 2 2 1 3 1 1 4 8 9 9 9 9 8 8 8 8 7 6 4 3 4 3 4 2 2 3 3 3 3 2 2 2 2 2 4 4 6 5 6 7 6 5 3
4 2 3 3 3 2 2 1 1 1 3 3 4 8 9 9 8 8 7 7 7 7 7 6 5 3 2 2 3 3 2 2 2 3 2 2 1 0 0 1 1 2 2 2 3 3 3 4 4
6 2 1 1 1 1 1 1 2 2 3 5 7 8 8 9 8 7 6 7 8 8 7 6 5 4 3 2 1 2 2 2 2 1 1 1 1 1 1 1 1 2 2 3 3 4 4 4 5
1 3 2 1 1 1 2 2 2 4 5 8 7 7 7 8 8 8 8 8 7 7 7 7 6 5 3 2 2 2 2 2 2 2 2 0 0 0 1 1 1 2 2 2 3 4 4 4 4
4 5 5 3 3 3 4 4 3 5 6 8 8 7 7 7 7 7 8 7 8 8 7 7 6 5 4 3 1 2 2 2 2 2 2 1 0 1 0 0 1 1 1 2 3 4 3 4 5
7 8 5 5 3 3 6 2 7 6 7 8 8 7 7 7 7 7 7 7 7 7 7 6 5 6 5 3 2 2 2 2 2 2 2 2 2 1 0 0 1 1 1 1 2 3 3 3 3
8 6 2 5 3 3 5 2 8 7 7 8 8 8 8 8 9 8 7 7 7 7 7 6 6 5 5 4 3 4 4 3 3 3 2 3 3 1 1 1 2 1 1 1 2 1 2 2 3
3 3 2 2 4 4 4 3 6 7 7 8 9 9 8 8 8 8 8 7 7 7 7 6 6 6 5 4 4 4 4 3 3 3 4 3 3 2 1 2 2 2 1 1 1 1 1 2 2
4 4 2 1 2 4 4 3 6 8 9 9 9 9 9 9 9 9 8 8 7 7 7 6 6 5 3 3 3 3 4 3 3 4 4 4 3 3 1 2 2 1 2 2 1 1 2 2 2
6 5 3 4 4 4 3 4 5 8 9 9 10 11 11 11 10 10 9 8 8 7 7 6 6 5 3 3 3 2 3 2 3 3 4 3 3 2 2 2 1 1 1 1 2 2 2 1 1
6 5 4 3 5 5 5 6 8 9 9 10 10 11 12 12 12 12 11 9 9 8 7 5 5 5 4 4 4 4 3 3 3 3 3 3 3 3 3 2 2 1 1 2 2 2 2 2 1
5 3 4 5 7 4 5 4 8 11 11 12 12 13 13 13 13 12 12 11 10 9 8 7 6 5 5 4 3 3 2 2 3 1 3 3 3 3 3 2 2 2 2 2 1 2 2 2 2
1 3 5 6 6 5 6 6 5 10 11 14 15 15 15 15 14 14 13 11 10 9 8 7 7 6 5 4 4 3 3 3 3 3 4 2 3 2 2 2 2 2 2 3 3 2 3 3 3
7 6 6 7 8 6 2 5 3 8 10 12 15 16 16 15 15 14 13 12 10 10 8 8 7 6 6 5 4 3 4 3 3 3 3 2 3 2 2 2 1 1 2 2 2 2 1 2 3
9 8 6 6 6 2 3 5 1 4 7 10 14 16 17 16 15 15 14 13 12 11 10 9 8 7 6 5 5 4 4 4 4 3 3 1 2 2 3 1 1 1 1 1 2 1 3 2 2
11 10 6 5 4 1 5 4 2 5 7 9 11 15 16 16 16 15 15 14 13 13 12 11 10 8 7 6 5 4 5 4 3 2 1 1 0 2 2 0 0 1 1 1 1 2 1 1 2
8 9 6 8 5 5 2 2 4 7 9 11 13 15 16 16 16 16 16 15 14 13 13 12 11 9 8 7 6 5 4 2 2 3 3 2 1 1 2 0 0 0 1 1 3 1 2 2 3
7 5 5 6 5 5 2 3 2 9 12 13 15 16 16 16 16 16 15 15 14 13 12 12 11 10 9 8 7 6 5 4 4 3 2 1 1 1 1 1 1 1 1 1 3 3 1 3 3
9 8 8 6 6 7 4 1 4 5 9 13 15 16 16 17 17 16 15 14 14 13 13 12 11 11 9 8 7 6 6 5 5 4 3 3 2 2 2 1 1 1 2 2 2 3 3 4 4
9 10 9 7 6 6 6 1 6 4 8 11 13 15 16 16 16 16 15 15 14 14 14 13 12 11 10 9 8 7 6 6 5 5 4 3 3 3 2 2 2 2 2 2 3 4 3 4 4
Wind_Direction
204 212 235 245 240 228 82 80 56 93 91 76 92 95 46 33 11 64 101 138 144 143 139 146 144 143 140 136 134 134 134 135 136 136 136 136 134 130 127 123 116 110 106 101 99 97 97 99 100
206 216 236 240 257 246 96 72 66 64 93 119 120 140 102 70 51 90 127 140 148 143 144 146 142 143 141 138 137 136 136 137 137 138 138 138 136 134 130 125 119 114 111 107 104 101 100 101 101
213 237 258 249 263 324 52 64 61 103 133 163 141 74 51 66 84 115 134 147 147 145 142 135 146 144 141 140 139 138 138 137 137 137 138 138 135 132 128 124 122 118 115 113 110 107 105 105 106
223 225 236 250 231 46 14 36 102 155 154 177 167 121 91 51 63 121 140 150 149 147 141 138 149 144 142 141 141 141 141 141 141 140 139 137 135 133 130 126 123 121 120 118 115 113 112 112 111
239 252 237 226 192 75 41 30 178 196 159 163 178 129 100 72 103 129 145 150 149 144 140 139 147 146 145 143 143 143 144 143 142 142 141 140 140 140 137 134 129 126 126 124 121 119 119 121 120
237 245 247 233 125 105 85 87 206 216 139 144 169 139 90 98 121 137 146 149 145 143 139 135 142 146 147 146 144 143 143 143 144 143 143 143 142 141 138 137 137 138 134 129 128 127 129 129 128
267 261 268 283 171 137 88 88 291 295 145 97 35 132 114 112 122 138 141 146 141 139 136 142 149 150 150 147 147 146 143 140 139 142 147 150 151 149 148 142 143 144 143 145 144 142 141 141 141
280 265 232 222 277 80 96 129 38 334 83 74 311 146 128 128 134 136 139 140 135 137 137 144 147 151 158 155 151 149 146 144 143 145 152 157 164 168 167 175 158 163 162 164 163 161 154 152 155
254 251 249 13 332 34 90 159 98 60 107 103 64 46 106 131 138 139 142 142 141 136 135 146 148 152 160 157 147 157 154 149 159 162 159 190 196 177 179 160 146 179 183 180 178 177 171 180 175
244 261 21 12 340 343 41 300 133 177 159 138 116 105 123 138 140 145 151 151 147 142 142 150 141 147 159 151 144 162 163 151 172 147 167 196 181 197 184 122 158 194 196 193 185 187 196 219 195
244 292 353 343 332 307 256 176 201 238 209 181 151 137 142 145 145 145 147 144 138 139 136 130 129 139 144 135 142 145 143 136 150 146 163 175 188 186 200 162 174 193 203 205 180 202 218 220 223
238 271 301 316 334 285 265 187 142 357 18 52 126 140 146 148 148 144 142 137 130 129 128 119 117 126 121 122 130 149 147 149 156 143 188 173 205 227 140 236 250 231 213 202 215 233 227 238 233
227 232 274 300 305 317 179 163 115 80 70 99 121 140 147 141 134 127 127 133 134 130 127 123 120 116 117 122 148 134 142 146 129 128 140 190 206 202 182 203 261 270 256 220 220 231 224 226 230
199 205 220 231 195 179 180 139 138 102 119 122 125 133 137 136 133 129 130 135 128 125 126 125 122 119 116 117 122 117 128 115 118 122 106 125 229 182 202 203 237 275 281 277 255 246 237 236 236
205 215 204 188 195 171 195 152 122 115 138 133 131 127 127 125 129 126 123 130 130 126 120 122 123 112 107 103 126 123 116 115 104 91 81 72 49 89 240 239 231 329 281 256 252 253 240 233 228
217 227 216 142 186 175 237 149 115 137 151 140 138 134 129 128 127 116 116 124 122 119 114 112 111 105 100 93 90 87 90 101 97 94 91 82 69 70 264 335 25 337 278 260 246 252 247 244 245
210 233 225 144 171 200 233 122 123 149 158 150 151 147 140 136 132 123 120 125 121 114 108 105 102 105 103 106 107 103 101 93 97 94 87 90 89 88 79 42 40 295 285 279 278 269 277 258 253
278 267 234 184 148 205 213 167 140 159 168 158 152 148 145 140 134 131 129 127 122 115 113 113 115 104 118 122 115 111 106 108 101 92 83 84 92 85 65 98 46 324 311 322 321 287 283 281 274
294 273 256 126 141 214 205 188 163 167 176 167 158 155 151 141 137 139 142 138 132 126 123 120 111 110 126 125 129 126 120 115 104 95 90 94 90 93 65 66 88 359 48 11 331 287 233 261 289
240 246 221 154 164 225 198 198 172 177 186 179 170 165 159 152 150 152 152 150 145 138 130 131 130 124 136 105 98 99 103 115 97 92 91 86 85 80 100 53 57 58 72 60 16 342 313 339 331
235 252 236 193 167 199 215 203 178 178 189 184 180 173 169 166 164 162 161 160 155 148 144 131 126 126 113 121 134 137 146 163 145 131 116 88 83 76 49 60 27 20 348 58 18 345 338 330 333
230 222 222 203 220 198 228 252 172 178 186 191 187 182 178 174 172 169 168 168 165 157 149 139 138 132 127 147 140 161 166 138 108 118 101 109 95 83 78 62 52 8 20 44 331 41 326 305 295
220 173 203 219 243 251 215 262 158 175 194 193 190 186 184 181 177 175 174 172 169 162 155 147 142 139 136 135 137 167 143 127 133 130 115 133 111 96 82 73 61 33 20 30 10 7 334 318 317
152 166 185 217 237 240 210 260 184 180 201 188 185 185 185 183 179 177 175 173 171 168 162 154 148 145 146 148 138 141 122 130 135 144 137 161 131 120 93 86 54 6 21 26 359 337 329 340 337
200 219 221 216 222 213 127 252 255 151 180 183 179 181 182 182 180 179 178 177 176 175 171 164 159 156 157 156 151 148 145 155 160 172 143 177 144 131 97 49 24 10 18 343 338 321 338 326 319
212 241 269 287 292 161 172 248 96 135 164 174 174 176 178 180 181 181 182 180 179 179 176 173 166 164 165 163 158 158 169 182 151 147 154 147 72 73 81 54 15 356 326 315 327 290 300 309 297
208 232 271 274 277 276 197 209 179 160 172 177 175 175 179 181 181 182 182 181 180 180 179 176 170 168 169 168 165 167 173 170 136 157 202 162 126 133 131 167 291 328 324 318 292 319 308 296 283
256 228 211 251 283 278 226 235 186 170 182 181 181 180 179 180 181 182 181 181 180 179 176 174 172 171 171 173 180 167 171 173 179 200 159 134 158 140 205 241 249 256 266 272 283 272 281 280 279
193 213 240 255 277 288 297 28 80 172 180 182 183 181 179 180 180 180 180 179 179 176 173 174 174 174 176 180 179 172 176 176 183 190 184 185 195 193 222 237 252 258 261 272 281 294 287 280 285
225 232 227 246 241 259 285 61 108 164 176 181 180 178 178 180 179 177 176 175 178 177 174 175 176 178 179 180 182 182 178 183 191 187 186 191 201 217 215 233 245 257 261 270 277 283 291 289 288